Acibadem, Turkey

9:28 AM +03 on September 26, 2017 (GMT +0300)
Acibadem

Weather History for 17061 - January, 2014

Change the Weather History Date:

Wednesday, January 15, 2014

  Actual Average Record
Temperature  
Mean Temperature 50 °F -  
Max Temperature 62 °F 46 °F - ()
Min Temperature 39 °F 37 °F - ()
Degree Days  
Heating Degree Days 14    
Moisture  
Dew Point 41 °F    
Average Humidity 69    
Maximum Humidity 100    
Minimum Humidity 32    
Precipitation  
Precipitation 0.00 in - - ()
Sea Level Pressure  
Sea Level Pressure 30.12 in    
Wind  
Wind Speed 1 mph ()    
Max Wind Speed 4 mph    
Max Gust Speed -    
Visibility 7.7 miles    
Events      
T = Trace of Precipitation, MM = Missing Value Source: Averaged Metar Reports

Daily Weather History Graph

Daily Weather History Graph

Search for Another Location

Airport or City:

Trip Planner

Search our weather history database for the weather conditions in past years. The results will help you decide how hot, cold, wet, or windy it might be!

Date:

Astronomy

Jan. 15, 2014 Rise Set
Actual Time 7:26 AM EET 5:00 PM EET
Civil Twilight 6:56 AM EET 5:30 PM EET
Nautical Twilight 6:22 AM EET 6:04 PM EET
Astronomical Twilight 5:49 AM EET 6:37 PM EET
Moon 4:40 PM EET (1/15) 6:29 AM EET (1/15)
Length of Visible Light 10h 33m
Length of Day
9h 33m
Waxing Gibbous, 99% of the Moon is Illuminated
Jan 15
Waxing Gibbous
Jan 16
Full
Jan 24
Last Quarter
Jan 30
New
Feb 6
First Quarter

Hourly Weather History & Observations

Time (EET) Temp. Dew Point Humidity Pressure Visibility Wind Dir Wind Speed Gust Speed Precip Events Conditions
12:00 AM 43 °F 42 °F 95% 30.13 in 9 mi SE 1.2 mph - -  
1:00 AM 42 °F 41 °F 96% 30.14 in 7 mi Calm Calm - -  
2:00 AM 41 °F 41 °F 100% 30.14 in 7 mi Calm Calm - -  
3:00 AM 40 °F 40 °F 100% 30.14 in 7 mi East 1.2 mph - -  
4:00 AM 40 °F 40 °F 98% 30.13 in 7 mi WSW 1.2 mph - -  
5:00 AM 40 °F 40 °F 99% 30.13 in 6 mi South 2.3 mph - -  
6:00 AM 40 °F 39 °F 97% 30.13 in 6 mi SSE 2.3 mph - -  
7:00 AM 41 °F 41 °F 98% 30.14 in 6 mi SSE 2.3 mph - -  
8:00 AM 42 °F 41 °F 97% 30.14 in 3 mi Calm Calm - -   Mist
9:00 AM 43 °F 42 °F 96% 30.15 in 1 mi ESE 1.2 mph - -   Mist
10:00 AM 51 °F 43 °F 65% 30.15 in 3 mi Calm Calm - -   Mist
11:00 AM 57 °F 47 °F 62% 30.14 in 4 mi SSE 1.2 mph - -   Mist
12:00 PM 62 °F 41 °F 34% 30.12 in 6 mi South 3.5 mph - -  
1:00 PM 62 °F 40 °F 32% 30.10 in 6 mi SSW 3.5 mph - -   Clear
2:00 PM 62 °F 40 °F 32% 30.09 in 9 mi South 3.5 mph - -   Clear
3:00 PM 60 °F 40 °F 35% 30.09 in 12 mi South 3.5 mph - -   Clear
4:00 PM 60 °F 40 °F 36% 30.09 in 12 mi South 3.5 mph - -   Partly Cloudy
6:00 PM 56 °F 40 °F 43% 30.09 in 12 mi SSW 1.2 mph - -   Partly Cloudy
7:00 PM 55 °F 41 °F 49% 30.10 in 12 mi SSE 1.2 mph - -   Partly Cloudy
8:00 PM 53 °F 41 °F 54% 30.10 in 6 mi ESE 1.2 mph - -   Clear
9:00 PM 52 °F 42 °F 58% 30.10 in 12 mi WNW 1.2 mph - -   Clear
10:00 PM 53 °F 43 °F 58% 30.08 in 12 mi SSE 1.2 mph - -   Mostly Cloudy
11:00 PM 53 °F 42 °F 57% 30.07 in 12 mi SSE 1.2 mph - -   Mostly Cloudy